Lid_Strength_Index
2 2 2 2 2 1 1 1 1 1 1 1 2 2 2 2 2 2 5 2 2 -3 -2 0 3 2 1 3 3 3 8 10 10 9 8 6 7 5 4 5 4 4 4 3 1
2 2 2 2 2 2 2 1 2 2 2 2 2 3 2 2 2 4 -1 -2 -3 -2 1 2 5 4 3 4 3 5 8 9 6 6 7 6 6 6 6 6 6 5 3 2 2
2 2 2 2 2 2 2 2 2 2 2 2 3 3 2 1 4 6 -4 -4 -2 -2 0 1 3 4 5 4 4 5 8 6 6 5 5 6 6 5 6 7 5 5 4 3 3
2 2 2 2 2 2 2 2 2 2 2 2 3 2 2 2 8 1 -2 -3 -2 -1 1 2 4 5 5 6 5 7 6 6 6 5 6 6 5 6 6 5 4 3 3 3 3
3 3 3 3 2 2 2 2 3 3 3 2 2 2 2 5 6 3 -1 -2 -1 1 2 3 5 6 6 5 6 6 6 6 5 5 5 5 6 6 6 4 3 3 3 3 3
3 3 3 3 3 3 3 3 3 3 3 3 2 2 3 8 4 -1 -0 0 0 2 3 3 6 6 5 5 6 5 6 6 6 6 6 7 6 6 5 4 4 3 3 3 3
3 3 3 3 3 3 3 4 4 4 3 2 2 2 4 6 3 -1 -0 1 1 2 4 3 5 6 4 5 4 5 7 6 6 6 7 6 8 8 5 4 4 4 3 3 3
3 3 3 3 3 4 4 5 4 2 3 2 1 1 5 3 1 -0 1 2 2 2 3 2 5 5 6 5 5 6 7 9 7 7 6 7 10 7 4 5 5 4 4 3 3
4 4 4 4 4 4 5 5 2 2 2 1 1 3 6 2 4 0 2 3 4 3 3 3 5 6 6 6 7 7 9 9 9 6 7 7 8 7 5 5 5 5 4 4 3
4 4 4 4 4 5 5 5 1 1 1 1 1 4 4 5 3 2 3 3 4 4 5 5 4 6 6 6 10 9 9 9 9 7 7 7 7 6 5 5 5 5 4 4 4
4 4 4 4 5 5 5 2 3 4 3 4 4 5 5 2 2 3 3 4 4 5 7 5 6 7 6 6 6 7 8 9 7 6 7 7 7 6 5 6 6 5 5 4 4
4 4 4 5 5 6 3 4 3 3 5 3 3 4 3 3 4 3 3 7 6 7 6 7 8 5 5 5 6 7 7 8 7 6 7 6 7 6 5 6 5 5 5 4 4
5 5 5 5 6 5 3 3 2 3 5 5 4 4 4 3 5 4 4 6 8 8 8 8 7 5 6 6 7 7 7 7 8 7 5 7 7 7 6 5 5 5 4 4 4
5 5 6 6 7 2 4 2 2 3 7 7 6 5 4 4 6 3 3 5 7 8 8 8 6 8 7 7 6 8 6 7 8 8 10 7 11 7 6 6 6 5 5 4 4
6 6 7 7 5 5 3 2 2 4 12 7 6 3 4 5 5 5 3 5 7 8 7 9 8 8 8 8 6 7 6 7 8 8 8 8 10 7 6 6 5 5 5 4 3
6 7 7 7 5 4 3 2 3 8 12 8 6 6 6 6 6 5 5 4 4 7 7 7 6 7 7 7 6 6 7 7 7 8 11 8 9 9 6 6 5 4 4 4 3
7 7 7 5 5 3 2 3 8 10 7 9 8 6 7 7 7 6 6 7 7 9 9 8 8 6 6 8 7 7 8 10 11 12 12 8 9 8 6 5 4 4 3 3 3
7 8 6 4 2 3 3 6 11 9 8 6 7 7 8 6 7 6 7 8 6 7 7 9 10 7 6 7 8 8 8 10 14 13 11 8 10 8 5 4 3 3 3 3 3
8 2 2 2 2 2 4 9 9 8 7 7 7 8 8 7 7 7 7 7 6 6 8 9 9 6 6 5 6 7 9 6 9 8 10 9 7 6 5 5 4 4 4 4 4
5 2 2 2 1 2 5 10 7 6 6 6 9 7 8 7 8 7 7 6 6 5 4 7 10 6 6 6 6 6 6 9 8 12 13 10 9 9 7 6 5 5 4 3 4
5 4 2 1 1 4 8 7 7 5 5 7 8 8 7 7 7 7 7 6 5 5 4 6 7 8 6 7 7 8 8 7 7 8 11 12 10 6 6 5 5 4 4 3 3
5 6 2 1 5 4 7 7 9 6 5 6 6 7 7 7 7 7 7 6 5 5 7 5 7 9 8 5 5 6 7 7 10 10 9 9 10 5 5 4 4 4 3 3 3
5 4 1 2 8 7 6 6 6 6 7 7 7 6 6 7 8 7 7 5 5 5 6 5 7 10 9 7 6 7 6 6 7 7 9 11 10 5 4 4 4 4 3 3 4
5 6 4 3 4 6 7 7 7 6 7 7 7 6 6 7 6 8 7 6 5 5 5 4 7 8 10 9 7 9 7 7 7 9 9 9 8 6 5 5 4 4 3 4 4
5 7 7 7 6 6 7 7 8 8 7 7 7 7 7 8 7 8 7 6 5 7 6 6 9 8 7 7 7 8 8 8 8 8 9 8 8 6 5 5 4 4 4 4 4
8 8 6 7 8 7 9 7 8 7 8 7 8 7 7 8 7 8 7 7 7 5 6 5 9 8 9 8 8 8 7 7 7 7 7 7 7 5 4 4 4 4 4 4 4
6 5 7 10 9 8 8 8 9 8 7 7 8 7 7 7 6 5 5 5 5 6 7 7 8 9 12 8 9 11 8 8 7 7 7 9 6 4 5 4 4 4 4 4 4